Regional Weather Roundup
Issued by NWS

Home | Current Version | Previous Version | Text Only | Print | Product List | Glossary Off
Versions: 1 2 3 4 5 6 7 8 9 10 11 12 13 14 15 16 17 18 19 20 21 22 23 24 25 26 27 28 29 30 31 32 33 34 35 36 37 38 39 40 41 42 43 44 45 46 47 48 49 50

000
ASUS44 KMEG 291610
RWRTN
TENNESSEE HOURLY STATE WEATHER ROUNDUP
NATIONAL WEATHER SERVICE MEMPHIS TN
1100 AM CDT MON MAY 29 2017

TNZ002-004-019-021-049-052-054-088>092-291700-
WEST TENNESSEE

CITY           SKY/WX    TMP DP  RH WIND       PRES   REMARKS
MEMPHIS INTL   MOSUNNY   82  64  54 VRB5      30.03R
NWS MEMPHIS      N/A     80 N/A N/A MISG        N/A
JACKSON        MOSUNNY   80  60  50 S5        30.03R
DYERSBURG        N/A    N/A N/A N/A MISG        N/A
SOMERVILLE     PTSUNNY   77  68  73 CALM      30.04R
COVINGTON      SUNNY     81  61  50 CALM      30.03R
UNION CITY     SUNNY     81  59  47 VRB6      30.00S
BOLIVAR        PTSUNNY   77  66  69 CALM      30.04R
PARIS          SUNNY     79  57  47 CALM      30.01R
HUNTINGDON     SUNNY     81  57  44 CALM      30.01S
LEXINGTON      MOSUNNY   77  68  73 MISG      30.04R
SELMER         CLOUDY    73  68  83 S6        30.04S
SAVANNAH       PTSUNNY   75  70  83 SW6       30.04S
$$

TNZ008-025-027-028-033-062-065-066-291700-
NORTH MIDDLE TENNESSEE

CITY           SKY/WX    TMP DP  RH WIND       PRES   REMARKS
NASHVILLE      CLOUDY    75  64  68 SE3       30.05R
PORTLAND       SUNNY     77  59  53 CALM      30.02R
CLARKSVILLE    SUNNY     78  56  46 SW6       30.01R
SMYRNA         CLOUDY    73  66  78 S3        30.06R
COOKEVILLE     MOSUNNY   70  66  88 W5        30.06R
GALLATIN       MOSUNNY   75  68  78 VRB6      30.06R
CROSSVILLE     PTSUNNY   69  60  73 SW5       30.08R
$$

TNZ061-075-076-078-094-096-097-291700-
SOUTH MIDDLE TENNESSEE

CITY           SKY/WX    TMP DP  RH WIND       PRES   REMARKS
FAYETTEVILLE   MOSUNNY   72  68  88 SE6       30.06R
TULLAHOMA      SUNNY     72  64  78 SE5       30.07R
WINCHESTER     PTSUNNY   70  66  88 CALM        N/A
MCMINNVILLE    SUNNY     72  68  88 CALM      30.06S
COLUMBIA       MOSUNNY   73  66  78 CALM      30.03R
SHELBYVILLE    SUNNY     72  66  83 CALM      30.05R
$$

TNZ017-018-042-046-047-291700-
NORTHEAST TENNESSEE

CITY           SKY/WX    TMP DP  RH WIND       PRES   REMARKS
TRI CITIES     CLOUDY    75  61  61 W7        30.04R
ELIZABETHTON   CLOUDY    75  63  64 NW6       30.04R
$$

TNZ012-013-036-069-073-074-291700-
CENTRAL EAST TENNESSEE

CITY           SKY/WX    TMP DP  RH WIND       PRES   REMARKS
KNOXVILLE      CLOUDY    74  64  71 SW10      30.04R
OAK RIDGE      CLOUDY    76  63  64 VRB6      30.05R
DOWNTOWN KNOXV MOSUNNY   75  66  73 W5        30.03R
GATLINBURG     MOSUNNY   77  63  61 W3        30.02R
MORRISTOWN     PTSUNNY   73  63  68 VRB5      30.04R
JACKSBORO      MOSUNNY   75  63  64 CALM      30.08R
$$

TNZ083-085-099-291700-
SOUTHEAST TENNESSEE

CITY           SKY/WX    TMP DP  RH WIND       PRES   REMARKS
CHATTANOOGA    CLOUDY    75  65  70 NW5       30.06R
$$

SKY/WX REPORTED AS FAIR MEANS FEW OR NO CLOUDS BELOW
12 THOUSAND FEET.




USA.gov is the U.S. government's official web portal to all federal, state and local government web resources and services.